Powrót do katalogu

STARLINK-31616

AktywnyŁącznośćVLEO
NORAD 59270·PAYLOAD·🇺🇸 United States

Wystrzelony Mar 19, 2024 z Vandenberg Space Force Base

Loading…

Następne Przeloty (najbliższe 24 godziny)

TLE

ŚwieżeSource: CelesTrak SupGP

Epoka: Sep 14, 2026, 20:59 UTC

1 59270C 24050S   26257.87479167  .00018585  00000+0  54942-3 0  2575
2 59270  53.1586  19.6922 0001308  83.1608 133.9315 15.34362701    18

Śledź STARLINK-31616 w czasie rzeczywistym z AllMySat

Download on the App Store